• In Russia
  • List of Countries
  • For 7 days
  • Water Temperature
  • Satellite Maps
  • Weather Map
  • Weather Widgets
  • user-avatar
    Login

    Hourly Weather Batina

    Today, 17 June, Monday

    Time Temperature Precipitation Wind Pressure Humidity
    00:00 +23°C° 0 mm 2 mps 671 mmHg 60%
    01:00 +23°C° 0 mm 2 mps 670 mmHg 60%
    02:00 +22°C° 0 mm 1 mps 670 mmHg 60%
    03:00 +22°C° 0 mm 1 mps 670 mmHg 59%
    04:00 +21°C° 0 mm 2 mps 670 mmHg 61%
    05:00 +21°C° 0 mm 2 mps 670 mmHg 62%
    06:00 +21°C° 0 mm 3 mps 671 mmHg 64%
    07:00 +22°C° 0 mm 3 mps 671 mmHg 58%
    08:00 +25°C° 0 mm 3 mps 672 mmHg 52%
    09:00 +26°C° 0 mm 4 mps 672 mmHg 46%
    10:00 +27°C° 0 mm 4 mps 672 mmHg 42%
    11:00 +28°C° 0 mm 5 mps 672 mmHg 39%
    12:00 +30°C° 0 mm 6 mps 672 mmHg 35%
    13:00 +30°C° 0.1 mm 6 mps 672 mmHg 35%
    14:00 +30°C° 0.1 mm 6 mps 671 mmHg 34%
    15:00 +30°C° 0.1 mm 7 mps 671 mmHg 34%
    16:00 +28°C° 0.4 mm 7 mps 671 mmHg 38%
    17:00 +27°C° 0.4 mm 6 mps 671 mmHg 42%
    18:00 +24°C° 0.4 mm 6 mps 671 mmHg 46%
    19:00 +23°C° 0.3 mm 5 mps 671 mmHg 51%
    20:00 +22°C° 0.3 mm 4 mps 671 mmHg 56%
    21:00 +20°C° 0.3 mm 3 mps 671 mmHg 62%
    22:00 +20°C° 0 mm 3 mps 671 mmHg 62%
    23:00 +20°C° 0 mm 2 mps 671 mmHg 63%

    Tomorrow, 18 June, Tuesday

    Time Temperature Precipitation Wind Pressure Humidity
    00:00 +21°C° 0 mm 1 mps 671 mmHg 63%
    01:00 +20°C° 0 mm 1 mps 671 mmHg 63%
    02:00 +20°C° 0 mm 1 mps 671 mmHg 64%
    03:00 +18°C° 0 mm 0 mps 670 mmHg 64%
    04:00 +19°C° 0 mm 0 mps 671 mmHg 59%
    05:00 +20°C° 0 mm 0 mps 671 mmHg 54%
    06:00 +21°C° 0 mm 0 mps 672 mmHg 49%
    07:00 +25°C° 0 mm 1 mps 672 mmHg 44%
    08:00 +26°C° 0 mm 1 mps 673 mmHg 39%
    09:00 +28°C° 0 mm 1 mps 673 mmHg 34%
    10:00 +29°C° 0 mm 2 mps 673 mmHg 31%
    11:00 +30°C° 0 mm 3 mps 673 mmHg 27%
    12:00 +31°C° 0 mm 3 mps 673 mmHg 24%
    13:00 +33°C° 0 mm 4 mps 673 mmHg 22%
    14:00 +33°C° 0 mm 4 mps 673 mmHg 21%
    15:00 +34°C° 0 mm 4 mps 673 mmHg 19%
    16:00 +33°C° 0 mm 4 mps 672 mmHg 20%
    17:00 +33°C° 0 mm 4 mps 672 mmHg 20%
    18:00 +32°C° 0 mm 4 mps 672 mmHg 21%
    19:00 +29°C° 0 mm 3 mps 672 mmHg 28%
    20:00 +27°C° 0 mm 2 mps 672 mmHg 35%
    21:00 +25°C° 0 mm 1 mps 672 mmHg 41%
    22:00 +25°C° 0 mm 1 mps 672 mmHg 42%
    23:00 +24°C° 0 mm 1 mps 672 mmHg 43%

    Day after tomorrow, 19 June, Wednesday

    Time Temperature Precipitation Wind Pressure Humidity
    00:00 +24°C° 0 mm 1 mps 672 mmHg 43%
    01:00 +24°C° 0 mm 1 mps 672 mmHg 43%
    02:00 +23°C° 0 mm 2 mps 671 mmHg 42%
    03:00 +23°C° 0 mm 2 mps 671 mmHg 41%
    04:00 +24°C° 0 mm 2 mps 671 mmHg 38%
    05:00 +25°C° 0 mm 3 mps 672 mmHg 36%
    06:00 +26°C° 0 mm 3 mps 673 mmHg 33%
    07:00 +28°C° 0 mm 4 mps 673 mmHg 30%
    08:00 +30°C° 0 mm 4 mps 674 mmHg 26%
    09:00 +32°C° 0 mm 5 mps 674 mmHg 23%
    10:00 +33°C° 0 mm 5 mps 674 mmHg 21%
    11:00 +34°C° 0 mm 5 mps 674 mmHg 20%
    12:00 +35°C° 0 mm 5 mps 674 mmHg 18%
    13:00 +35°C° 0 mm 5 mps 674 mmHg 18%
    14:00 +36°C° 0 mm 5 mps 673 mmHg 17%
    15:00 +36°C° 0 mm 5 mps 673 mmHg 17%
    16:00 +35°C° 0 mm 5 mps 673 mmHg 18%
    17:00 +34°C° 0 mm 4 mps 673 mmHg 19%
    18:00 +34°C° 0 mm 4 mps 673 mmHg 20%
    19:00 +31°C° 0 mm 3 mps 673 mmHg 23%
    20:00 +30°C° 0 mm 2 mps 673 mmHg 26%
    21:00 +28°C° 0 mm 2 mps 672 mmHg 29%
    22:00 +27°C° 0 mm 1 mps 672 mmHg 31%
    23:00 +27°C° 0 mm 1 mps 672 mmHg 33%

    20 June, Thursday

    Time Temperature Precipitation Wind Pressure Humidity
    00:00 +26°C° 0 mm 1 mps 671 mmHg 35%
    01:00 +26°C° 0 mm 1 mps 671 mmHg 34%
    02:00 +26°C° 0 mm 1 mps 671 mmHg 32%
    03:00 +26°C° 0 mm 1 mps 671 mmHg 31%
    04:00 +27°C° 0 mm 1 mps 671 mmHg 29%
    05:00 +28°C° 0 mm 2 mps 672 mmHg 28%
    06:00 +29°C° 0 mm 2 mps 672 mmHg 26%
    07:00 +31°C° 0 mm 3 mps 673 mmHg 23%
    08:00 +33°C° 0 mm 4 mps 673 mmHg 20%
    09:00 +35°C° 0 mm 5 mps 674 mmHg 16%
    10:00 +36°C° 0 mm 5 mps 674 mmHg 16%
    11:00 +36°C° 0 mm 6 mps 674 mmHg 15%
    12:00 +38°C° 0 mm 7 mps 674 mmHg 14%
    13:00 +38°C° 0 mm 7 mps 673 mmHg 15%
    14:00 +38°C° 0 mm 7 mps 673 mmHg 15%
    15:00 +38°C° 0 mm 7 mps 673 mmHg 15%
    16:00 +36°C° 0 mm 7 mps 673 mmHg 16%
    17:00 +35°C° 0 mm 6 mps 672 mmHg 17%
    18:00 +34°C° 0 mm 5 mps 672 mmHg 17%
    19:00 +33°C° 0 mm 5 mps 672 mmHg 19%
    20:00 +32°C° 0 mm 4 mps 672 mmHg 20%
    21:00 +30°C° 0 mm 3 mps 672 mmHg 21%
    22:00 +29°C° 0 mm 3 mps 672 mmHg 22%
    23:00 +29°C° 0 mm 4 mps 671 mmHg 22%

    21 June, Friday

    Time Temperature Precipitation Wind Pressure Humidity
    00:00 +28°C° 0 mm 4 mps 671 mmHg 23%
    01:00 +28°C° 0 mm 5 mps 671 mmHg 24%
    02:00 +28°C° 0 mm 6 mps 671 mmHg 25%
    03:00 +28°C° 0 mm 7 mps 671 mmHg 26%
    04:00 +29°C° 0 mm 8 mps 671 mmHg 26%
    05:00 +29°C° 0 mm 8 mps 672 mmHg 26%
    06:00 +31°C° 0 mm 8 mps 672 mmHg 26%
    07:00 +33°C° 0 mm 10 mps 673 mmHg 23%
    08:00 +34°C° 0 mm 11 mps 673 mmHg 19%
    09:00 +37°C° 0 mm 12 mps 674 mmHg 16%
    10:00 +37°C° 0 mm 12 mps 674 mmHg 16%
    11:00 +38°C° 0 mm 12 mps 674 mmHg 15%
    12:00 +38°C° 0 mm 11 mps 674 mmHg 15%
    13:00 +38°C° 0 mm 10 mps 673 mmHg 15%
    14:00 +38°C° 0 mm 9 mps 673 mmHg 15%
    15:00 +38°C° 0 mm 8 mps 672 mmHg 14%
    16:00 +38°C° 0 mm 7 mps 672 mmHg 15%
    17:00 +36°C° 0 mm 7 mps 672 mmHg 16%
    18:00 +35°C° 0 mm 6 mps 672 mmHg 17%
    19:00 +34°C° 0 mm 6 mps 672 mmHg 18%
    20:00 +33°C° 0 mm 5 mps 672 mmHg 19%
    21:00 +32°C° 0 mm 5 mps 672 mmHg 20%
    22:00 +32°C° 0 mm 6 mps 672 mmHg 20%
    23:00 +30°C° 0 mm 7 mps 672 mmHg 20%

    22 June, Saturday

    Time Temperature Precipitation Wind Pressure Humidity
    00:00 +31°C° 0 mm 9 mps 672 mmHg 21%
    01:00 +31°C° 0 mm 9 mps 671 mmHg 22%
    02:00 +29°C° 0 mm 9 mps 671 mmHg 24%
    03:00 +29°C° 0 mm 9 mps 671 mmHg 25%
    04:00 +29°C° 0 mm 9 mps 672 mmHg 24%
    05:00 +31°C° 0 mm 9 mps 672 mmHg 23%
    06:00 +31°C° 0 mm 9 mps 673 mmHg 22%
    07:00 +33°C° 0 mm 10 mps 673 mmHg 20%
    08:00 +34°C° 0 mm 11 mps 674 mmHg 18%
    09:00 +37°C° 0 mm 11 mps 674 mmHg 16%
    10:00 +37°C° 0 mm 11 mps 674 mmHg 15%
    11:00 +38°C° 0 mm 10 mps 674 mmHg 14%
    12:00 +39°C° 0 mm 10 mps 674 mmHg 13%
    13:00 +39°C° 0 mm 9 mps 674 mmHg 13%
    14:00 +39°C° 0 mm 8 mps 674 mmHg 13%
    15:00 +39°C° 0 mm 7 mps 673 mmHg 12%
    16:00 +38°C° 0 mm 7 mps 673 mmHg 13%
    17:00 +36°C° 0 mm 6 mps 673 mmHg 14%
    18:00 +36°C° 0 mm 6 mps 673 mmHg 15%
    19:00 +34°C° 0 mm 6 mps 673 mmHg 16%
    20:00 +33°C° 0 mm 6 mps 673 mmHg 17%
    21:00 +30°C° 0 mm 5 mps 673 mmHg 18%
    22:00 +30°C° 0 mm 6 mps 673 mmHg 18%
    23:00 +30°C° 0 mm 6 mps 673 mmHg 18%
    Show more